FW8731 Weather Reports


Display with metric or nautical units.
time (UTC)temp
F
wind
direction
speed
MPH
gust
MPH
rain 1hr
in
rain 24hr
in
rain mn
in
humidity
%
barometer
mb
20260508134542 44 0 0.0 2.0 0.00 0.00 0.00 91 1020.1
20260508133043 44 0 0.0 1.0 0.00 0.00 0.00 91 1019.8
20260508131543 44 0 0.0 2.0 0.00 0.00 0.00 91 1019.7
20260508130052 44 0 0.0 1.0 0.00 0.00 0.00 91 1019.7
20260508124544 45 0 0.0 1.0 0.00 0.00 0.00 91 1019.6
20260508123040 45 0 0.0 0.0 0.00 0.00 0.00 91 1019.6
20260508121556 45 0 0.0 2.0 0.00 0.00 0.00 91 1019.6
20260508120037 45 0 0.0 0.0 0.00 0.00 0.00 90 1019.3
20260508114542 45 0 0.0 1.0 0.00 0.00 0.00 90 1019.3
20260508113042 46 0 0.0 1.0 0.00 0.00 0.00 89 1019.1
20260508111541 46 0 0.0 1.0 0.00 0.00 0.00 89 1018.8
20260508110045 47 0 0.0 2.0 0.00 0.00 0.00 89 1018.7
20260508104543 47 0 0.0 1.0 0.00 0.00 0.00 89 1018.6
20260508103045 48 0 0.0 2.0 0.00 0.00 0.00 88 1018.6
20260508101542 48 0 0.0 0.0 0.00 0.00 0.00 88 1018.6
20260508100041 48 0 0.0 1.0 0.00 0.00 0.00 87 1018.5
20260508094538 49 0 0.0 1.0 0.00 0.00 0.00 87 1018.4
20260508093036 49 0 0.0 2.0 0.00 0.00 0.00 85 1018.2
20260508091545 50 0 0.0 1.0 0.00 0.00 0.00 84 1018.2
20260508090044 50 0 0.0 0.0 0.00 0.00 0.00 84 1018.1
20260508084542 51 0 0.0 2.0 0.00 0.00 0.00 82 1018.0
20260508083116 52 0 0.0 1.0 0.00 0.00 0.00 80 1017.9
20260508081548 53 0 0.0 1.0 0.00 0.00 0.00 80 1017.9
20260508080053 54 0 0.0 2.0 0.00 0.00 0.00 78 1017.9
20260508074544 54 0 0.0 1.0 0.00 0.00 0.00 79 1018.0
20260508073047 56 333 0.0 2.0 0.00 0.00 0.00 77 1017.9
20260508071542 57 0 1.0 3.0 0.00 0.00 0.00 76 1017.8
20260508070047 58 0 0.0 2.0 0.00 0.00 0.00 75 1017.7
20260508064603 58 0 0.0 2.0 0.00 0.00 0.00 74 1017.8
20260508063045 59 340 0.0 3.0 0.00 0.00 0.00 75 1017.6
20260508061543 60 350 1.0 3.0 0.00 0.00 0.00 74 1017.6
20260508060039 61 290 0.0 3.0 0.00 0.00 0.00 72 1017.4
20260508054540 60 89 1.0 4.0 0.00 0.00 0.00 74 1017.1
20260508053035 61 127 2.0 5.0 0.00 0.00 0.00 73 1017.1
20260508051542 62 0 1.0 3.0 0.00 0.00 0.00 70 1016.8
20260508050049 63 0 0.0 2.0 0.00 0.00 0.00 69 1016.7
20260508044542 64 0 0.0 3.0 0.00 0.00 0.00 66 1016.4
20260508043037 65 0 0.0 2.0 0.00 0.00 0.00 63 1016.2
20260508041535 66 195 0.0 3.0 0.00 0.00 0.00 60 1015.9
20260508040041 68 196 1.0 3.0 0.00 0.00 0.00 56 1015.7
20260508034542 70 0 0.0 2.0 0.00 0.00 0.00 51 1015.4
20260508033036 72 82 0.0 2.0 0.00 0.00 0.00 45 1015.0
20260508031544 74 81 0.0 4.0 0.00 0.00 0.00 39 1014.6
20260508030055 77 112 2.0 4.0 0.00 0.00 0.00 34 1014.5
20260508024553 78 0 0.0 17.0 0.00 0.00 0.00 28 1014.6
20260508023042 79 159 1.0 8.0 0.00 0.00 0.00 28 1014.4
20260508021541 80 231 5.0 11.0 0.00 0.00 0.00 27 1014.3
20260508020048 82 191 6.0 10.0 0.00 0.00 0.00 26 1014.3
20260508014545 83 195 2.0 8.0 0.00 0.00 0.00 27 1014.3
20260508013042 83 192 3.0 11.0 0.00 0.00 0.00 28 1014.0
20260508011550 84 185 4.0 11.0 0.00 0.00 0.00 27 1014.0
20260508010101 85 169 3.0 12.0 0.00 0.00 0.00 26 1014.0
20260508004556 86 203 1.0 4.0 0.00 0.00 0.00 30 1014.2
20260508003043 86 257 2.0 8.0 0.00 0.00 0.00 28 1014.2
20260508001544 86 0 1.0 6.0 0.00 0.00 0.00 27 1014.3
20260508000041 85 324 3.0 9.0 0.00 0.00 0.00 27 1014.4
20260507234544 86 25 1.0 10.0 0.00 0.00 0.00 31 1014.3
20260507233044 86 332 0.0 6.0 0.00 0.00 0.00 30 1014.4
20260507231550 86 318 1.0 4.0 0.00 0.00 0.00 33 1014.5
20260507230043 85 286 2.0 8.0 0.00 0.00 0.00 28 1014.7
20260507224547 85 243 1.0 11.0 0.00 0.00 0.00 27 1014.9
20260507223040 85 226 2.0 12.0 0.00 0.00 0.00 28 1015.1
20260507221538 85 304 2.0 11.0 0.00 0.00 0.00 28 1015.1
20260507220043 84 233 1.0 8.0 0.00 0.00 0.00 24 1015.3
20260507214542 84 244 1.0 7.0 0.00 0.00 0.00 26 1015.5
20260507213049 84 193 2.0 10.0 0.00 0.00 0.00 22 1015.8
20260507211541 83 288 1.0 9.0 0.00 0.00 0.00 24 1015.8
20260507210040 82 0 3.0 7.0 0.00 0.00 0.00 21 1015.9
20260507204545 81 200 3.0 9.0 0.00 0.00 0.00 21 1015.9
20260507203042 81 269 1.0 10.0 0.00 0.00 0.00 29 1016.2
20260507201541 80 315 2.0 8.0 0.00 0.00 0.00 35 1016.4
20260507200041 79 315 0.0 2.0 0.00 0.00 0.00 40 1016.7
20260507194537 77 257 2.0 5.0 0.00 0.00 0.00 43 1016.8
20260507193044 76 209 1.0 4.0 0.00 0.00 0.00 49 1017.2
20260507191543 74 232 2.0 5.0 0.00 0.00 0.00 46 1017.4
20260507190043 73 294 2.0 5.0 0.00 0.00 0.00 52 1017.6
20260507184540 73 177 2.0 6.0 0.00 0.00 0.00 54 1017.7
20260507183040 72 291 1.0 4.0 0.00 0.00 0.00 54 1017.9
20260507181543 71 198 0.0 3.0 0.00 0.00 0.00 57 1018.1
20260507180050 71 197 1.0 4.0 0.00 0.00 0.00 56 1018.2
20260507174542 70 0 0.0 2.0 0.00 0.00 0.00 58 1018.4
20260507173040 68 0 0.0 1.0 0.00 0.00 0.00 68 1018.7
20260507171536 65 0 0.0 2.0 0.00 0.00 0.00 70 1018.8
20260507170044 62 0 0.0 1.0 0.00 0.00 0.00 78 1018.9
20260507164542 59 64 0.0 2.0 0.00 0.00 0.00 80 1019.2
20260507163044 57 0 0.0 2.0 0.00 0.00 0.00 85 1019.3
20260507161542 54 60 1.0 2.0 0.00 0.00 0.00 87 1019.3
20260507160044 53 0 0.0 0.0 0.00 0.00 0.00 90 1019.5
20260507154540 51 0 0.0 0.0 0.00 0.00 0.00 92 1019.6
20260507153049 50 0 0.0 0.0 0.00 0.00 0.00 93 1019.6
20260507151545 49 0 0.0 0.0 0.00 0.00 0.00 93 1019.7
20260507150039 48 0 0.0 0.0 0.00 0.00 0.00 94 1019.8
20260507144537 46 0 0.0 0.0 0.00 0.00 0.00 93 1020.0
20260507143043 46 0 0.0 0.0 0.00 0.00 0.00 93 1019.9
20260507141542 46 0 0.0 0.0 0.00 0.00 0.00 92 1019.8
20260507140057 45 0 0.0 0.0 0.00 0.00 0.00 92 1019.7